Simultaneous Nadir Overpasses (SNOs) Predictions

Prediction of SNOs between GOES-17 and METOP-C Satellite Orbit:

Table of predicted SNOs for the next 14.0 days since TLE Epoch: 1/24/2025
Index Date Time (GOES-17) GOES-17 Lat,Lon METOP-C Lat,Lon Distance(km) Time Diff (sec)
1 01/25/2025 16:13:23 -0.00,-104.70 -0.98,-100.38 492.77 80
2 01/27/2025 04:32:24 0.01,-104.68 -0.07,-104.97 33.05 80
3 01/29/2025 16:30:37 -0.00,-104.69 -0.05,-104.54 16.96 80
4 02/01/2025 04:26:17 0.00,-104.68 0.12,-104.15 61.31 80
5 02/02/2025 16:45:09 -0.01,-104.69 0.90,-108.70 458.07 80
6 02/03/2025 16:27:09 -0.00,-104.69 -0.22,-103.71 111.40 80
7 02/05/2025 04:46:10 0.01,-104.69 -0.80,-108.31 412.70 80
8 02/06/2025 04:22:50 0.01,-104.68 0.33,-103.32 156.08 80
9 02/07/2025 16:41:40 -0.02,-104.68 0.73,-107.87 364.27 80
